Weather History for Flora, IL

Change the Weather History Date:

Friday, December 30, 2011

  Actual Average (KEVV) Record (KEVV)
Temperature  
Mean Temperature 50 °F 33 °F  
Max Temperature 55 °F 41 °F 68 °F (1965)
Min Temperature 46 °F 25 °F -5 °F (1983)
Degree Days  
Heating Degree Days 14 32  
Month to date heating degree days 880  
Since 1 July heating degree days 1741  
Cooling Degree Days 0 0  
Month to date cooling degree days 0  
Year to date cooling degree days 1397  
Moisture  
Dew Point 41 °F    
Average Humidity 69    
Maximum Humidity 87    
Minimum Humidity 46    
Precipitation  
Precipitation 0.06 in 0.11 in 4.87 in (1932)
Month to date precipitation 3.66  
Year to date precipitation 45.21  
Snow  
Snow 0.00 in 0.20 in 1.00 in (1969)
Month to date snowfall 3.1  
Since 1 July snowfall 3.4  
Snow Depth -    
Sea Level Pressure  
Sea Level Pressure 29.67 in    
Wind  
Wind Speed 14 mph (SSW)    
Max Wind Speed 25 mph    
Max Gust Speed 34 mph    
Visibility 10 miles    
Events Rain    
T = Trace of Precipitation, MM = Missing Value Source: NWS Daily Summary

Daily Weather History Graph

Daily Weather History Graph

Search for Another Location

Airport:

Trip Planner

Search our weather history database for the weather conditions in past years. The results will help you decide how hot, cold, wet, or windy it might be!

Date:

Astronomy

Dec. 30, 2011 Rise Set
Actual Time 7:11 AM CST 4:41 PM CST
Civil Twilight 6:41 AM CST 5:11 PM CST
Nautical Twilight 6:08 AM CST 5:44 PM CST
Astronomical Twilight 5:35 AM CST 6:16 PM CST
Moon 10:35 AM CST (12/30) 11:11 PM CST (12/30)
Length of Visible Light 10h 29m
Length of Day
9h 29m
Waxing Crescent, 36% of the Moon is Illuminated
Dec 30
Waxing Crescent
Jan 1
First Quarter
Jan 9
Full
Jan 16
Last Quarter
Jan 23
New

Hourly Weather History & Observations

Time (CST) Temp. Windchill Dew Point Humidity Pressure Visibility Wind Dir Wind Speed Gust Speed Precip Events Conditions
12:15 AM 49.3 °F - 41.0 °F 73% 29.77 in 10.0 mi South 11.5 mph - N/A   Scattered Clouds
12:35 AM 49.3 °F - 41.9 °F 76% 29.77 in 10.0 mi South 11.5 mph 16.1 mph N/A   Drizzle
12:55 AM 48.6 °F - 42.4 °F 79% 29.76 in 10.0 mi South 8.1 mph - N/A Rain Rain
1:15 AM 48.2 °F - 42.4 °F 80% 29.77 in 10.0 mi South 5.8 mph - N/A Rain Light Rain
1:35 AM 47.7 °F - 43.2 °F 84% 29.77 in 10.0 mi South 9.2 mph - 0.01 in Rain Rain
1:55 AM 47.7 °F - 43.5 °F 86% 29.74 in 10.0 mi SE 10.4 mph - 0.02 in Rain Light Rain
2:15 AM 47.5 °F - 43.7 °F 87% 29.73 in 10.0 mi SSE 10.4 mph - N/A Rain Light Rain
2:35 AM 47.7 °F - 43.7 °F 86% 29.72 in 10.0 mi SSE 10.4 mph - N/A   Scattered Clouds
2:55 AM 48.2 °F - 43.9 °F 85% 29.72 in 10.0 mi SSE 10.4 mph - N/A   Scattered Clouds
3:15 AM 48.0 °F - 43.7 °F 85% 29.73 in 10.0 mi SSE 11.5 mph - N/A   Clear
3:35 AM 47.7 °F - 43.7 °F 86% 29.72 in 10.0 mi SSE 12.7 mph - N/A   Scattered Clouds
3:55 AM 46.4 °F 40.7 °F 42.8 °F 87% 29.68 in 10.0 mi SE 12.7 mph - N/A   Scattered Clouds
4:15 AM 46.9 °F - 43.2 °F 87% 29.68 in 10.0 mi SSE 12.7 mph - N/A   Clear
4:35 AM 47.1 °F - 43.5 °F 87% 29.67 in 10.0 mi SSE 15.0 mph - 0.01 in   Scattered Clouds
4:55 AM 47.8 °F - 44.1 °F 87% 29.66 in 10.0 mi SSE 13.8 mph - 0.01 in   Overcast
5:15 AM 48.2 °F - 44.6 °F 87% 29.66 in 10.0 mi SSE 13.8 mph - N/A   Overcast
5:35 AM 48.7 °F - 45.1 °F 87% 29.64 in 7.0 mi SSE 10.4 mph - N/A   Overcast
5:55 AM 50.0 °F - 46.4 °F 87% 29.64 in 10.0 mi SSE 11.5 mph - N/A   Overcast
6:15 AM 50.7 °F - 46.6 °F 86% 29.64 in 10.0 mi South 13.8 mph - N/A   Overcast
6:35 AM 51.1 °F - 46.6 °F 85% 29.63 in 10.0 mi South 13.8 mph - N/A   Overcast
6:55 AM 51.1 °F - 46.6 °F 85% 29.63 in 10.0 mi South 17.3 mph 20.7 mph N/A   Mostly Cloudy
7:15 AM 51.1 °F - 46.6 °F 85% 29.62 in 10.0 mi South 16.1 mph - N/A   Mostly Cloudy
7:35 AM 51.1 °F - 46.6 °F 85% 29.60 in 10.0 mi South 15.0 mph 23.0 mph N/A   Scattered Clouds
7:55 AM 51.1 °F - 46.6 °F 85% 29.61 in 10.0 mi South 16.1 mph 24.2 mph N/A   Scattered Clouds
8:15 AM 51.8 °F - 46.4 °F 82% 29.60 in 10.0 mi South 12.7 mph 19.6 mph N/A   Scattered Clouds
8:35 AM 51.6 °F - 46.4 °F 82% 29.60 in 7.0 mi South 19.6 mph - 0.01 in Rain Rain
8:55 AM 51.1 °F - 46.6 °F 85% 29.60 in 10.0 mi South 16.1 mph - 0.03 in   Overcast
9:15 AM 51.8 °F - 46.4 °F 82% 29.60 in 10.0 mi South 17.3 mph 21.9 mph N/A   Overcast
9:35 AM 51.8 °F - 45.0 °F 77% 29.60 in 10.0 mi SSW 20.7 mph 26.5 mph N/A   Overcast
9:55 AM 52.2 °F - 44.4 °F 75% 29.60 in 10.0 mi SSW 18.4 mph 25.3 mph N/A   Overcast
10:15 AM 52.0 °F - 43.7 °F 73% 29.60 in 10.0 mi SSW 16.1 mph 27.6 mph N/A   Overcast
10:35 AM 52.9 °F - 42.1 °F 67% 29.60 in 10.0 mi SSW 16.1 mph 24.2 mph N/A   Overcast
10:55 AM 52.9 °F - 41.0 °F 64% 29.59 in 10.0 mi SW 18.4 mph 25.3 mph N/A   Overcast
11:15 AM 52.7 °F - 40.5 °F 63% 29.59 in 10.0 mi SW 18.4 mph 23.0 mph N/A   Overcast
11:35 AM 52.7 °F - 39.7 °F 61% 29.59 in 10.0 mi SW 16.1 mph 24.2 mph N/A   Overcast
11:55 AM 52.9 °F - 38.8 °F 59% 29.59 in 10.0 mi SW 24.2 mph 31.1 mph N/A   Overcast
12:55 PM 53.6 °F - 39.2 °F 58% 29.59 in 10.0 mi SW 16.1 mph 27.6 mph N/A   Overcast
1:15 PM 54.1 °F - 39.0 °F 57% 29.59 in 10.0 mi SW 18.4 mph 26.5 mph N/A   Overcast
1:35 PM 54.3 °F - 37.9 °F 54% 29.59 in 10.0 mi SSW 25.3 mph 34.5 mph N/A   Overcast
1:55 PM 54.7 °F - 38.5 °F 54% 29.60 in 10.0 mi SW 16.1 mph 25.3 mph N/A   Overcast
2:15 PM 55.4 °F - 38.1 °F 52% 29.61 in 10.0 mi SW 19.6 mph 29.9 mph N/A   Overcast
2:35 PM 55.0 °F - 37.2 °F 51% 29.62 in 10.0 mi SW 25.3 mph 29.9 mph N/A   Overcast
2:55 PM 54.9 °F - 36.9 °F 51% 29.63 in 10.0 mi SW 18.4 mph 26.5 mph N/A   Overcast
3:15 PM 54.7 °F - 36.9 °F 51% 29.65 in 10.0 mi SW 12.7 mph 19.6 mph N/A   Overcast
3:35 PM 54.7 °F - 35.8 °F 49% 29.66 in 10.0 mi SW 20.7 mph 26.5 mph N/A   Overcast
3:55 PM 54.7 °F - 35.2 °F 48% 29.67 in 10.0 mi SW 16.1 mph 21.9 mph N/A   Overcast
4:15 PM 54.7 °F - 34.0 °F 46% 29.68 in 10.0 mi SW 18.4 mph 28.8 mph N/A   Overcast
4:35 PM 54.7 °F - 34.2 °F 46% 29.70 in 10.0 mi WSW 15.0 mph 27.6 mph N/A   Overcast
4:55 PM 53.8 °F - 34.7 °F 48% 29.71 in 10.0 mi WSW 15.0 mph 21.9 mph N/A   Overcast
5:15 PM 53.6 °F - 34.9 °F 49% 29.72 in 10.0 mi WSW 16.1 mph 21.9 mph N/A   Overcast
5:35 PM 53.2 °F - 34.7 °F 49% 29.72 in 10.0 mi SW 13.8 mph 23.0 mph N/A   Overcast
5:55 PM 52.9 °F - 34.2 °F 49% 29.74 in 10.0 mi WSW 13.8 mph 18.4 mph N/A   Overcast
6:15 PM 52.9 °F - 33.8 °F 48% 29.75 in 10.0 mi WSW 17.3 mph 28.8 mph N/A   Overcast
6:35 PM 52.9 °F - 34.0 °F 49% 29.76 in 10.0 mi WSW 15.0 mph 27.6 mph N/A   Overcast
6:55 PM 51.8 °F - 34.9 °F 53% 29.78 in 10.0 mi WSW 18.4 mph 29.9 mph N/A Rain Rain
7:15 PM 50.9 °F - 36.3 °F 57% 29.78 in 10.0 mi WSW 12.7 mph 18.4 mph N/A Rain Light Rain
7:35 PM 51.1 °F - 35.8 °F 56% 29.79 in 10.0 mi WSW 15.0 mph 19.6 mph N/A   Overcast
7:55 PM 51.1 °F - 35.8 °F 56% 29.80 in 10.0 mi West 12.7 mph - N/A   Overcast
8:15 PM 50.7 °F - 36.0 °F 57% 29.81 in 10.0 mi West 17.3 mph 20.7 mph N/A   Overcast
8:35 PM 50.2 °F - 36.0 °F 58% 29.81 in 10.0 mi West 16.1 mph 21.9 mph N/A   Overcast
8:55 PM 50.0 °F - 36.3 °F 59% 29.82 in 10.0 mi West 11.5 mph 17.3 mph N/A   Overcast
9:15 PM 49.6 °F - 36.5 °F 61% 29.83 in 10.0 mi West 12.7 mph - N/A   Overcast
9:35 PM 48.9 °F - 37.6 °F 65% 29.84 in 10.0 mi WNW 6.9 mph 16.1 mph N/A   Overcast
9:55 PM 49.3 °F - 36.7 °F 62% 29.84 in 10.0 mi West 17.3 mph 21.9 mph N/A   Overcast
10:15 PM 50.0 °F - 37.4 °F 62% 29.85 in 10.0 mi West 18.4 mph 27.6 mph N/A   Overcast
10:35 PM 48.4 °F - 36.5 °F 64% 29.86 in 10.0 mi West 19.6 mph 31.1 mph N/A   Overcast
10:55 PM 47.7 °F - 37.4 °F 68% 29.86 in 10.0 mi West 15.0 mph - N/A   Overcast
11:15 PM 46.9 °F - 37.2 °F 69% 29.87 in 10.0 mi West 16.1 mph 20.7 mph N/A   Overcast
11:35 PM 46.4 °F 39.2 °F 37.0 °F 70% 29.88 in 10.0 mi West 18.4 mph 25.3 mph N/A   Overcast
11:55 PM 45.9 °F 38.0 °F 36.9 °F 71% 29.88 in 10.0 mi WNW 20.7 mph 26.5 mph N/A   Overcast